Weather History for Las Vegas, NM

Change the Weather History Date:

Tuesday, December 24, 2013

  Actual Average Record
Temperature  
Mean Temperature 40 °F -  
Max Temperature 54 °F 43 °F 68 °F (1955)
Min Temperature 26 °F 15 °F -11 °F (1990)
Degree Days  
Heating Degree Days 24    
Moisture  
Dew Point 18 °F    
Average Humidity 46    
Maximum Humidity 78    
Minimum Humidity 30    
Precipitation  
Precipitation 0.00 in - - ()
Sea Level Pressure  
Sea Level Pressure 30.12 in    
Wind  
Wind Speed 10 mph (NW)    
Max Wind Speed 24 mph    
Max Gust Speed 33 mph    
Visibility 10 miles    
Events      
Averages and records for this station are not official NWS values.
T = Trace of Precipitation, MM = Missing Value Source: NWS Daily Summary

Daily Weather History Graph

Daily Weather History Graph

Search for Another Location

Airport:

Trip Planner

Search our weather history database for the weather conditions in past years. The results will help you decide how hot, cold, wet, or windy it might be!

Date:

Astronomy

Dec. 24, 2013 Rise Set
Actual Time 7:07 AM MST 4:52 PM MST
Civil Twilight 6:39 AM MST 5:21 PM MST
Nautical Twilight 6:07 AM MST 5:53 PM MST
Astronomical Twilight 5:36 AM MST 6:24 PM MST
Moon 11:49 PM MST (12/24) 11:16 AM MST (12/24)
Length of Visible Light 10h 41m
Length of Day
9h 44m
Waning Gibbous, 58% of the Moon is Illuminated
Dec 24
Waning Gibbous
Dec 25
Last Quarter
Jan 1
New
Jan 7
First Quarter
Jan 15
Full

Hourly Weather History & Observations

Time (MST) Temp. Windchill Dew Point Humidity Pressure Visibility Wind Dir Wind Speed Gust Speed Precip Events Conditions
12:53 AM 28.0 °F 21.7 °F 7.0 °F 41% 30.21 in 10.0 mi NNW 5.8 mph - N/A   Clear
1:53 AM 28.9 °F 22.8 °F 7.0 °F 40% 30.20 in 10.0 mi NW 5.8 mph - N/A   Clear
2:53 AM 28.9 °F 19.2 °F 10.9 °F 47% 30.18 in 10.0 mi NW 11.5 mph - N/A   Clear
3:53 AM 39.0 °F 34.0 °F 12.0 °F 33% 30.13 in 10.0 mi NNW 6.9 mph - N/A   Clear
4:53 AM 34.0 °F 28.0 °F 14.0 °F 44% 30.17 in 10.0 mi NW 6.9 mph - N/A   Clear
5:53 AM 39.9 °F 35.8 °F 12.9 °F 33% 30.14 in 10.0 mi West 5.8 mph - N/A   Clear
6:53 AM 39.9 °F 36.7 °F 14.0 °F 35% 30.17 in 10.0 mi West 4.6 mph - N/A   Clear
7:53 AM 39.9 °F - 16.0 °F 38% 30.15 in 10.0 mi Calm Calm - N/A   Clear
8:53 AM 39.9 °F 32.9 °F 19.9 °F 45% 30.15 in 10.0 mi South 11.5 mph - N/A   Clear
9:53 AM 43.0 °F 37.2 °F 21.9 °F 43% 30.15 in 10.0 mi South 10.4 mph - N/A   Clear
10:53 AM 44.1 °F 38.6 °F 26.1 °F 49% 30.14 in 10.0 mi South 10.4 mph - N/A   Clear
11:53 AM 48.0 °F - 26.1 °F 42% 30.07 in 10.0 mi Calm Calm - N/A   Clear
12:53 PM 53.1 °F - 24.1 °F 32% 30.00 in 10.0 mi NW 17.3 mph 20.7 mph N/A   Clear
1:53 PM 54.0 °F - 23.0 °F 30% 29.98 in 10.0 mi WNW 24.2 mph 28.8 mph N/A   Clear
2:53 PM 53.1 °F - 21.9 °F 30% 29.98 in 10.0 mi WNW 23.0 mph 32.2 mph N/A   Clear
3:53 PM 50.0 °F - 19.9 °F 31% 29.95 in 10.0 mi WNW 20.7 mph 27.6 mph N/A   Clear
4:53 PM 45.0 °F 37.6 °F 19.0 °F 36% 30.01 in 10.0 mi WNW 17.3 mph - N/A   Clear
5:53 PM 42.1 °F 34.5 °F 19.9 °F 41% 30.02 in 10.0 mi WNW 15.0 mph - N/A   Clear
6:53 PM 39.0 °F 32.3 °F 18.0 °F 43% 30.04 in 10.0 mi NW 10.4 mph - N/A   Clear
7:53 PM 36.0 °F 29.6 °F 19.9 °F 52% 30.10 in 10.0 mi North 8.1 mph - N/A   Clear
8:46 PM 30.9 °F 17.8 °F 23.0 °F 72% 30.20 in 5.0 mi NE 23.0 mph 33.4 mph N/A   Haze
8:53 PM 30.9 °F 18.1 °F 23.0 °F 72% 30.15 in 6.0 mi NE 21.9 mph - N/A   Haze
9:53 PM 28.9 °F 17.7 °F 21.0 °F 72% 30.18 in 10.0 mi NE 15.0 mph - N/A   Overcast
10:53 PM 27.0 °F 17.3 °F 21.0 °F 78% 30.20 in 10.0 mi NNE 10.4 mph - N/A   Overcast
11:53 PM 26.1 °F 21.9 °F 19.9 °F 78% 30.21 in 10.0 mi ESE 3.5 mph - N/A   Overcast